Weather History for KLBL - March, 2014

Change the Weather History Date:

Saturday, March 29, 2014

  Actual Average Record
Temperature  
Mean Temperature 48 °F -  
Max Temperature 71 °F 62 °F 88 °F (1943)
Min Temperature 24 °F 34 °F 13 °F (1975)
Degree Days  
Heating Degree Days 18    
Moisture  
Dew Point 23 °F    
Average Humidity 41    
Maximum Humidity 69    
Minimum Humidity 18    
Precipitation  
Precipitation 0.00 in - - ()
Sea Level Pressure  
Sea Level Pressure 30.19 in    
Wind  
Wind Speed 10 mph (SSW)    
Max Wind Speed 28 mph    
Max Gust Speed 34 mph    
Visibility 10 miles    
Events      
Averages and records for this station are not official NWS values.
T = Trace of Precipitation, MM = Missing Value Source: NWS Daily Summary

Daily Weather History Graph

Daily Weather History Graph

Search for Another Location

Airport or City:

Trip Planner

Search our weather history database for the weather conditions in past years. The results will help you decide how hot, cold, wet, or windy it might be!

Date:

Astronomy

Mar. 29, 2014 Rise Set
Actual Time 7:33 AM CDT 8:03 PM CDT
Civil Twilight 7:07 AM CDT 8:29 PM CDT
Nautical Twilight 6:37 AM CDT 9:00 PM CDT
Astronomical Twilight 6:05 AM CDT 9:31 PM CDT
Moon 6:42 AM CDT (3/29) 7:11 PM CDT (3/29)
Length of Visible Light 13h 21m
Length of Day
12h 29m
Waning Crescent, 2% of the Moon is Illuminated
Mar 29
Waning Crescent
Mar 30
New
Apr 7
First Quarter
Apr 15
Full
Apr 22
Last Quarter

Hourly Weather History & Observations

Time (CDT) Temp. Windchill Dew Point Humidity Pressure Visibility Wind Dir Wind Speed Gust Speed Precip Events Conditions
12:15 AM 37.4 °F 33.8 °F 21.2 °F 52% 30.20 in 10.0 mi WNW 4.6 mph - N/A   Clear
12:35 AM 37.4 °F 32.1 °F 21.2 °F 52% 30.20 in 10.0 mi NNW 6.9 mph - N/A   Clear
12:55 AM 35.6 °F 30.7 °F 21.2 °F 56% 30.21 in 10.0 mi NNW 5.8 mph - N/A   Clear
1:15 AM 33.8 °F 28.6 °F 21.2 °F 60% 30.21 in 10.0 mi NNW 5.8 mph - N/A   Clear
1:35 AM 33.8 °F 27.0 °F 21.2 °F 60% 30.21 in 10.0 mi North 8.1 mph - N/A   Clear
1:55 AM 35.6 °F 29.2 °F 23.0 °F 60% 30.22 in 10.0 mi NNE 8.1 mph - N/A   Clear
2:15 AM 35.6 °F 30.7 °F 21.2 °F 56% 30.22 in 10.0 mi NNE 5.8 mph - N/A   Clear
2:35 AM 33.8 °F 30.8 °F 19.4 °F 56% 30.23 in 10.0 mi North 3.5 mph - N/A   Clear
2:55 AM 33.8 °F 28.6 °F 21.2 °F 60% 30.24 in 10.0 mi NNW 5.8 mph - N/A   Clear
3:15 AM 30.2 °F 21.9 °F 19.4 °F 64% 30.24 in 10.0 mi North 9.2 mph - N/A   Clear
3:35 AM 32.0 °F 24.8 °F 19.4 °F 60% 30.24 in 10.0 mi North 8.1 mph - N/A   Clear
3:55 AM 32.0 °F 27.5 °F 19.4 °F 60% 30.25 in 10.0 mi NNW 4.6 mph - N/A   Clear
4:15 AM 30.2 °F 26.7 °F 19.4 °F 64% 30.25 in 10.0 mi NW 3.5 mph - N/A   Clear
4:35 AM 30.2 °F 24.3 °F 19.4 °F 64% 30.25 in 10.0 mi NW 5.8 mph - N/A   Clear
4:55 AM 28.4 °F 21.2 °F 17.6 °F 64% 30.25 in 10.0 mi WNW 6.9 mph - N/A   Clear
5:15 AM 28.4 °F 20.4 °F 17.6 °F 64% 30.26 in 10.0 mi West 8.1 mph - N/A   Clear
5:35 AM 28.4 °F 20.4 °F 17.6 °F 64% 30.27 in 10.0 mi West 8.1 mph - N/A   Clear
5:55 AM 26.6 °F 17.5 °F 17.6 °F 69% 30.28 in 10.0 mi West 9.2 mph - N/A   Clear
6:15 AM 26.6 °F 19.1 °F 17.6 °F 69% 30.27 in 10.0 mi WNW 6.9 mph - N/A   Clear
6:35 AM 26.6 °F 20.0 °F 17.6 °F 69% 30.28 in 10.0 mi WNW 5.8 mph - N/A   Clear
6:55 AM 26.6 °F 21.2 °F 15.8 °F 64% 30.29 in 10.0 mi West 4.6 mph - N/A   Clear
7:15 AM 24.8 °F 20.5 °F 15.8 °F 69% 30.29 in 10.0 mi West 3.5 mph - N/A   Clear
7:35 AM 26.6 °F 22.6 °F 17.6 °F 69% 30.29 in 10.0 mi NNW 3.5 mph - N/A   Clear
7:55 AM 26.6 °F 22.6 °F 17.6 °F 69% 30.30 in 10.0 mi NNW 3.5 mph - N/A   Clear
8:15 AM 26.6 °F 22.6 °F 17.6 °F 69% 30.31 in 10.0 mi West 3.5 mph - N/A   Clear
8:35 AM 30.2 °F 24.3 °F 21.2 °F 69% 30.32 in 10.0 mi WSW 5.8 mph - N/A   Clear
8:55 AM 35.6 °F 32.8 °F 24.8 °F 65% 30.32 in 10.0 mi West 3.5 mph - N/A   Clear
9:15 AM 39.2 °F - 26.6 °F 61% 30.32 in 10.0 mi Calm Calm - N/A   Clear
9:35 AM 42.8 °F 41.1 °F 26.6 °F 53% 30.32 in 10.0 mi SSE 3.5 mph - N/A   Clear
9:55 AM 44.6 °F 43.1 °F 28.4 °F 53% 30.32 in 10.0 mi SSW 3.5 mph - N/A   Clear
10:15 AM 46.4 °F 43.5 °F 28.4 °F 50% 30.32 in 10.0 mi SSE 5.8 mph - N/A   Clear
10:35 AM 48.2 °F - 28.4 °F 46% 30.32 in 10.0 mi SSE 6.9 mph - N/A   Clear
10:55 AM 51.8 °F - 28.4 °F 41% 30.32 in 10.0 mi SSE 8.1 mph - N/A   Clear
11:15 AM 53.6 °F - 28.4 °F 38% 30.31 in 10.0 mi SE 12.7 mph - N/A   Clear
11:35 AM 55.4 °F - 28.4 °F 36% 30.30 in 10.0 mi SE 11.5 mph - N/A   Clear
11:55 AM 57.2 °F - 28.4 °F 33% 30.30 in 10.0 mi SSE 11.5 mph - N/A   Clear
12:15 PM 59.0 °F - 30.2 °F 34% 30.29 in 10.0 mi SSE 12.7 mph - N/A   Clear
12:35 PM 60.8 °F - 30.2 °F 31% 30.28 in 10.0 mi SSW 13.8 mph - N/A   Clear
12:55 PM 62.6 °F - 28.4 °F 27% 30.27 in 10.0 mi South 13.8 mph - N/A   Clear
1:15 PM 64.4 °F - 28.4 °F 26% 30.26 in 10.0 mi SSW 12.7 mph 21.9 mph N/A   Clear
1:35 PM 64.4 °F - 26.6 °F 24% 30.24 in 10.0 mi SSW 19.6 mph 25.3 mph N/A   Clear
1:55 PM 66.2 °F - 26.6 °F 23% 30.24 in 10.0 mi South 18.4 mph 27.6 mph N/A   Clear
2:15 PM 66.2 °F - 24.8 °F 21% 30.22 in 10.0 mi SSW 18.4 mph 27.6 mph N/A   Clear
2:35 PM 68.0 °F - 26.6 °F 21% 30.21 in 10.0 mi SSW 20.7 mph 28.8 mph N/A   Clear
2:55 PM 68.0 °F - 24.8 °F 20% 30.19 in 10.0 mi SW 19.6 mph 29.9 mph N/A   Clear
3:15 PM 69.8 °F - 26.6 °F 20% 30.17 in 10.0 mi SW 27.6 mph 33.4 mph N/A   Clear
3:35 PM 69.8 °F - 24.8 °F 18% 30.16 in 10.0 mi SW 19.6 mph 31.1 mph N/A   Clear
3:55 PM 69.8 °F - 24.8 °F 18% 30.14 in 10.0 mi SSW 23.0 mph 32.2 mph N/A   Clear
4:15 PM 69.8 °F - 24.8 °F 18% 30.13 in 10.0 mi SSW 23.0 mph 31.1 mph N/A   Clear
4:35 PM 69.8 °F - 24.8 °F 18% 30.12 in 10.0 mi South 25.3 mph 31.1 mph N/A   Clear
4:55 PM 69.8 °F - 24.8 °F 18% 30.11 in 10.0 mi SSW 23.0 mph 31.1 mph N/A   Clear
5:15 PM 71.6 °F - 26.6 °F 19% 30.09 in 10.0 mi SSW 26.5 mph 34.5 mph N/A   Clear
5:35 PM 69.8 °F - 24.8 °F 18% 30.08 in 10.0 mi South 21.9 mph 31.1 mph N/A   Clear
5:55 PM 69.8 °F - 24.8 °F 18% 30.07 in 10.0 mi SSW 23.0 mph 33.4 mph N/A   Clear
6:15 PM 69.8 °F - 24.8 °F 18% 30.06 in 10.0 mi South 23.0 mph 31.1 mph N/A   Clear
6:35 PM 69.8 °F - 24.8 °F 18% 30.06 in 10.0 mi SSW 24.2 mph 29.9 mph N/A   Clear
6:55 PM 68.0 °F - 23.0 °F 18% 30.06 in 10.0 mi SSW 19.6 mph 28.8 mph N/A   Clear
7:15 PM 68.0 °F - 23.0 °F 18% 30.05 in 10.0 mi South 20.7 mph 27.6 mph N/A   Clear
7:35 PM 66.2 °F - 23.0 °F 19% 30.05 in 10.0 mi South 17.3 mph - N/A   Clear
7:55 PM 64.4 °F - 21.2 °F 19% 30.06 in 10.0 mi South 15.0 mph - N/A   Clear
8:15 PM 62.6 °F - 21.2 °F 20% 30.06 in 10.0 mi South 13.8 mph - N/A   Clear
8:35 PM 59.0 °F - 21.2 °F 23% 30.06 in 10.0 mi South 11.5 mph - N/A   Clear
8:55 PM 55.4 °F - 19.4 °F 25% 30.06 in 10.0 mi SSE 10.4 mph - N/A   Clear
9:15 PM 53.6 °F - 19.4 °F 26% 30.06 in 10.0 mi South 11.5 mph - N/A   Clear
9:35 PM 51.8 °F - 21.2 °F 30% 30.06 in 10.0 mi SSE 12.7 mph - N/A   Clear
9:55 PM 53.6 °F - 21.2 °F 28% 30.06 in 10.0 mi SSE 13.8 mph - N/A   Clear
10:15 PM 51.8 °F - 21.2 °F 30% 30.06 in 10.0 mi SSE 15.0 mph - N/A   Clear
10:35 PM 53.6 °F - 21.2 °F 28% 30.06 in 10.0 mi SSE 16.1 mph - N/A   Clear
10:55 PM 51.8 °F - 21.2 °F 30% 30.06 in 10.0 mi SSE 13.8 mph - N/A   Clear
11:15 PM 51.8 °F - 21.2 °F 30% 30.06 in 10.0 mi SSE 16.1 mph - N/A   Clear
11:35 PM 53.6 °F - 21.2 °F 28% 30.05 in 10.0 mi SSE 18.4 mph - N/A   Clear
11:55 PM 53.6 °F - 21.2 °F 28% 30.05 in 10.0 mi SSE 18.4 mph - N/A   Clear